RH
18 18 17 19 17 15 16 17 17 16 19 21 24 26 28 31 34 35 39 43 42 44 46 45 44 42 42 45 44 45 45 43 42 40 42 45 45 46 47 44 42 44 46 42 40 38 34 33 34 34 35 35 35 36 37 36 37 37 37 37 34 35 36 34 34 34 35 37 35 34 35 35 35 36 37 38 39 41 41 42 41 33 27 28 30 30
16 15 14 15 15 15 16 17 17 16 17 19 21 23 24 28 32 33 36 40 40 41 44 44 44 43 41 42 40 40 43 43 42 39 40 43 44 46 47 45 43 47 52 45 38 38 36 34 33 32 34 35 35 36 36 36 37 37 37 38 35 33 35 34 33 33 34 35 34 34 34 34 35 36 37 38 38 40 41 41 39 32 27 28 29 29
15 14 13 13 14 15 16 16 14 14 16 18 19 20 21 22 26 33 35 37 40 41 42 43 43 41 38 39 38 38 40 41 42 41 40 41 41 46 48 45 43 49 55 46 37 38 36 34 34 32 32 34 35 36 36 37 37 36 36 38 36 33 33 34 32 32 32 33 34 35 34 34 36 36 37 37 37 39 41 40 36 29 25 26 27 27
14 14 13 12 13 14 14 14 14 13 14 17 18 18 19 19 23 32 34 35 38 40 42 42 42 41 39 39 38 36 36 37 41 41 40 39 39 45 47 44 42 49 56 47 37 37 36 34 35 33 32 33 34 35 35 37 37 36 34 35 36 34 32 33 32 30 30 32 34 35 35 34 35 36 36 36 35 36 37 37 34 28 24 25 25 26
13 13 13 11 12 13 12 13 14 14 13 13 15 16 17 20 24 29 32 34 36 38 39 39 41 41 41 40 37 35 36 35 38 40 39 37 37 43 44 42 42 45 53 51 39 35 35 35 36 34 33 32 32 33 34 35 36 35 33 32 33 34 32 33 31 28 29 32 33 34 34 35 34 34 35 36 34 34 33 33 33 28 24 25 24 25
13 13 13 11 11 11 12 13 14 13 13 12 12 14 15 19 24 27 31 34 36 36 35 36 39 38 37 37 36 35 37 36 36 38 38 36 36 40 42 44 46 43 48 52 43 37 35 35 37 36 35 32 31 32 33 34 34 33 31 30 30 32 33 32 30 27 28 29 30 30 31 33 32 31 33 35 33 33 32 31 33 31 28 26 25 24
13 14 14 12 10 11 11 11 12 11 13 13 10 11 13 17 21 24 29 34 36 37 34 33 35 35 33 34 34 34 35 36 37 37 38 38 35 36 39 43 45 42 44 48 44 38 35 35 35 36 36 33 31 31 32 33 33 32 30 26 25 27 28 29 30 27 26 27 27 27 28 30 30 29 30 33 32 32 32 31 31 32 31 28 25 25
13 15 17 15 11 12 11 11 12 11 12 12 10 9 10 13 15 18 23 29 33 35 33 32 33 34 33 32 31 32 33 36 38 38 38 39 36 36 37 39 41 40 40 43 43 38 35 35 33 35 37 35 31 31 31 32 33 30 27 23 21 21 22 24 26 26 24 24 25 25 25 26 28 28 29 30 31 32 31 31 30 29 32 30 25 26
14 14 17 17 12 11 10 10 10 11 11 10 9 8 9 10 11 14 17 21 24 27 28 31 36 35 30 28 29 32 34 37 39 40 39 39 38 36 36 37 36 35 35 37 38 35 34 36 34 35 38 37 32 31 31 31 31 30 26 22 20 19 20 20 22 22 21 22 22 23 23 23 24 27 29 29 31 31 31 32 31 29 32 31 24 24
17 16 15 17 15 11 9 10 10 11 10 9 9 9 8 9 10 12 14 16 19 21 21 25 30 30 23 23 27 30 33 35 37 40 39 38 37 34 35 37 33 31 31 31 32 33 34 35 35 36 38 37 33 31 31 31 31 31 27 23 20 18 18 18 19 19 19 20 22 23 22 19 20 24 27 30 31 32 29 30 31 29 30 30 26 24
20 19 17 17 16 12 11 12 12 11 10 9 9 9 10 12 13 13 12 14 16 17 17 18 22 23 20 20 25 27 28 31 33 37 40 38 36 34 35 37 33 29 29 28 28 32 34 34 36 35 35 36 34 31 31 31 30 31 28 23 19 18 18 17 18 18 18 19 20 22 20 16 16 19 23 27 29 31 28 24 25 25 25 27 27 28
20 21 19 18 16 14 15 15 13 12 10 11 11 10 13 15 15 14 13 13 14 14 14 14 16 19 18 17 21 23 25 29 30 31 35 37 35 35 37 38 35 32 29 27 26 29 33 34 34 32 32 34 33 31 31 30 30 31 28 23 19 18 18 17 17 17 17 18 19 19 18 16 16 16 18 20 24 28 26 22 21 21 21 22 24 28
20 20 20 19 16 15 16 15 14 12 11 12 12 11 13 15 15 14 13 12 13 12 12 12 14 15 15 16 18 18 21 26 25 24 29 33 34 36 39 38 34 34 31 27 26 28 31 33 33 32 31 32 32 31 31 31 29 30 29 24 20 18 17 17 17 17 17 18 18 19 18 17 16 15 16 15 18 23 23 21 20 20 19 19 20 22
20 20 20 19 17 15 15 14 14 14 13 13 13 12 14 14 15 15 13 12 12 11 10 10 11 13 12 13 14 15 17 20 20 21 24 29 33 35 39 39 35 34 34 29 26 27 29 32 33 34 34 33 32 30 30 31 29 29 29 25 20 18 16 16 17 16 17 17 18 18 17 17 16 15 15 15 16 19 21 20 18 18 19 19 18 18
20 20 18 17 16 15 15 13 14 14 14 14 13 13 14 14 14 14 12 12 11 11 10 9 10 11 10 11 12 13 14 15 17 19 20 25 32 33 35 39 36 32 34 33 29 26 28 32 33 34 35 36 36 33 30 30 28 28 27 23 20 18 16 16 16 16 17 17 18 18 16 16 16 15 15 15 15 17 19 19 17 17 19 20 19 17
21 20 17 16 15 15 15 13 13 15 15 15 13 13 15 13 12 13 13 11 11 11 11 10 9 9 10 11 11 11 12 13 14 17 19 23 29 31 33 37 34 29 33 35 31 27 28 32 33 34 35 36 39 38 33 31 29 26 24 21 17 16 15 15 15 15 16 16 16 17 16 15 15 15 15 15 15 15 17 18 17 16 16 19 21 20
21 20 18 17 15 15 15 13 12 14 16 15 13 12 12 12 11 13 15 13 13 13 12 11 11 10 10 10 11 10 11 11 12 15 17 21 26 29 31 34 33 31 33 33 29 28 29 31 33 34 34 34 37 38 34 30 27 24 22 19 16 15 15 14 14 15 15 15 16 15 15 14 14 14 14 14 14 14 16 17 17 16 15 16 18 20
21 21 18 17 16 16 16 15 13 14 15 15 14 11 11 11 12 13 15 15 15 15 13 11 11 11 12 12 11 11 10 10 11 13 15 18 21 24 28 31 32 32 32 32 30 29 29 30 32 33 33 33 35 36 35 32 29 25 22 18 15 14 13 13 12 13 14 14 14 14 14 13 13 14 14 14 15 15 16 18 16 16 15 15 15 18
22 22 21 17 17 18 17 17 16 14 15 15 14 12 11 12 12 12 15 15 15 15 13 11 11 11 12 13 12 13 12 11 12 13 15 16 16 19 24 28 31 32 33 32 31 30 28 29 31 32 32 32 33 35 36 36 35 31 25 20 16 12 11 10 11 12 12 13 13 13 12 12 12 13 13 14 15 15 16 17 17 15 15 15 14 15
24 24 24 20 17 18 19 18 17 15 13 15 15 14 12 11 11 13 13 13 13 14 13 11 10 9 9 10 11 13 13 11 12 13 14 15 16 18 24 27 29 31 32 31 32 31 29 30 32 32 32 32 33 34 36 37 37 35 31 26 20 14 11 11 11 11 11 12 12 12 11 12 12 13 14 14 15 16 16 16 17 18 17 16 17 16
27 26 27 26 21 19 20 17 15 14 13 14 15 15 13 12 12 12 12 11 12 12 13 14 14 12 11 9 8 12 13 12 12 14 14 15 16 19 25 28 30 30 30 32 33 31 30 31 32 32 32 31 31 33 34 35 36 36 35 31 25 19 14 13 11 10 10 11 11 12 12 12 12 12 13 14 14 15 16 16 17 19 19 19 19 19
31 27 27 31 26 19 19 17 15 15 14 13 14 15 14 13 13 13 13 12 12 11 11 14 16 17 16 12 10 11 13 14 14 14 15 16 16 19 24 28 31 31 30 32 34 33 33 33 31 31 31 31 31 32 33 35 36 36 37 35 32 27 20 14 13 10 10 10 11 11 12 12 12 13 13 15 16 16 17 17 17 18 19 19 19 20
33 30 28 33 30 20 18 19 17 16 15 14 14 14 14 14 13 13 14 13 13 11 9 10 15 18 16 12 11 10 11 13 15 15 16 17 16 18 22 27 29 30 31 32 34 34 34 33 30 29 32 33 33 33 34 35 36 36 37 37 37 35 30 24 20 16 13 13 13 12 13 13 14 15 16 17 20 21 21 21 20 19 18 19 20 20
36 34 31 33 32 25 20 19 20 18 16 16 15 14 14 14 14 13 14 15 14 12 10 10 14 17 15 12 11 9 8 11 13 14 15 17 18 19 21 25 28 30 32 35 35 35 36 35 31 30 33 36 35 33 33 33 33 34 36 37 37 37 37 35 32 27 21 18 18 17 16 16 16 18 19 21 23 23 23 24 24 23 21 20 22 25
37 35 34 34 36 33 25 21 21 19 17 16 15 15 14 14 15 14 14 15 16 15 13 10 12 15 15 14 12 8 8 10 11 12 14 16 19 20 22 25 28 30 32 33 33 34 37 35 33 32 34 35 33 31 30 29 30 30 32 34 35 37 39 39 38 37 30 24 23 23 21 20 20 21 23 23 24 23 22 25 29 30 27 23 22 26
36 36 36 35 35 34 28 23 21 19 18 17 15 16 16 15 15 15 15 16 17 17 15 12 13 16 16 15 13 10 10 10 11 12 14 16 18 22 25 25 26 28 29 29 29 31 33 33 33 34 34 34 34 32 30 30 28 27 29 31 34 37 40 40 40 41 39 33 29 28 27 25 24 25 26 24 24 24 25 28 32 34 33 29 24 25
38 38 38 34 33 35 35 30 25 22 19 17 17 16 16 15 15 15 16 16 16 17 16 15 17 18 16 16 15 12 10 10 11 13 14 16 19 23 25 22 21 24 27 28 29 31 32 32 33 36 36 34 33 32 31 31 29 27 28 30 33 37 41 42 42 43 44 41 36 32 30 29 28 28 28 27 25 26 29 32 34 35 35 34 29 25
43 42 40 36 34 38 43 37 29 25 21 18 18 17 17 16 16 16 16 17 16 16 16 16 18 19 18 17 16 14 12 12 12 13 14 17 21 22 21 19 19 22 25 27 29 31 31 32 32 35 36 34 32 32 31 30 31 30 29 31 34 36 38 41 42 43 45 46 43 37 32 31 31 30 30 31 30 30 33 36 38 37 36 36 33 28
47 44 42 40 36 37 42 38 30 27 24 22 20 18 18 17 16 16 17 16 17 17 16 17 19 19 19 17 16 15 14 13 13 13 14 18 20 18 16 16 18 20 22 24 27 29 30 29 28 32 35 35 33 33 31 30 31 32 32 32 34 36 37 40 42 43 45 47 45 40 36 35 34 33 33 34 33 33 35 38 39 38 37 36 35 33
44 44 44 43 41 40 40 39 34 29 27 26 23 19 19 18 16 16 16 16 17 17 17 19 20 18 17 17 17 16 15 14 13 14 15 16 16 16 16 15 15 19 23 24 26 26 26 26 25 26 31 34 34 33 32 31 31 32 33 34 34 36 36 37 40 43 44 46 45 43 42 40 37 35 34 34 34 34 35 37 38 38 37 36 36 36
43 46 47 45 46 44 41 39 37 32 29 28 25 21 20 21 19 17 17 16 18 18 18 20 22 22 18 16 18 19 18 16 14 14 15 15 16 16 16 13 13 18 23 23 23 24 25 25 25 24 26 28 30 31 31 30 30 31 33 35 34 35 35 36 38 41 44 46 46 46 45 42 38 36 35 34 35 36 36 36 37 38 37 37 37 38
46 49 49 48 50 46 41 39 38 35 32 29 28 26 23 21 20 19 18 17 18 18 18 19 21 22 21 18 18 19 18 15 14 14 14 14 14 15 14 13 14 16 19 19 19 20 21 22 24 24 25 26 27 27 27 27 28 29 32 34 34 33 33 34 35 37 41 46 48 48 47 44 40 39 37 36 37 37 37 37 38 39 38 37 38 38
50 49 47 47 50 46 40 38 37 38 38 34 29 27 25 23 22 21 20 19 18 19 19 20 20 21 23 21 18 18 17 14 14 14 13 12 12 11 11 13 13 14 16 17 16 17 17 19 22 22 21 22 24 24 23 23 24 27 31 32 33 31 31 32 31 31 36 43 48 49 49 46 43 40 39 39 39 39 39 38 38 38 38 37 38 39
50 48 47 47 47 44 40 38 39 40 39 35 31 29 27 26 25 23 22 22 21 21 21 22 22 22 23 22 19 17 15 14 14 13 13 12 13 11 10 11 13 14 16 16 16 16 16 17 18 17 14 16 19 21 23 22 22 24 27 30 31 31 31 31 30 28 31 38 45 48 48 47 45 42 41 41 42 42 41 39 37 37 38 38 39 38
51 50 51 50 48 45 42 41 42 41 36 33 33 32 30 27 26 25 24 23 22 22 21 20 21 21 21 21 21 20 17 15 15 14 13 13 13 12 11 11 12 12 13 14 14 16 17 16 16 17 15 15 16 18 20 21 22 23 25 28 30 31 31 30 29 28 30 35 42 47 48 47 45 43 43 43 44 44 40 38 36 36 38 39 38 37
52 52 52 50 49 48 47 45 45 42 37 35 36 37 36 32 29 27 26 24 22 22 21 20 19 19 20 20 21 20 18 16 15 15 15 13 12 11 11 10 11 10 11 12 13 16 18 17 16 16 16 14 15 16 16 18 20 22 24 26 28 29 29 29 29 29 32 37 42 45 47 47 45 44 43 43 43 42 39 38 37 37 39 41 42 40
52 52 53 50 48 49 50 45 43 44 42 40 41 43 41 36 31 30 28 27 25 24 24 24 24 23 23 23 22 21 20 21 21 18 15 12 10 11 11 10 11 13 13 13 14 16 17 16 16 16 14 12 12 14 15 15 17 20 23 24 26 27 27 27 30 30 32 37 42 44 44 45 43 42 41 41 41 39 38 38 39 39 41 43 43 42
53 52 53 52 48 48 50 46 45 45 43 41 42 44 44 39 36 34 34 33 31 28 28 29 29 29 27 25 26 27 27 27 23 19 17 17 18 18 18 16 14 17 18 17 17 18 17 19 20 19 15 13 13 14 14 15 16 18 20 22 24 24 24 26 29 30 30 35 39 41 41 40 39 39 40 40 39 38 38 39 40 42 42 43 44 44
55 53 53 53 50 48 48 48 47 44 44 48 48 46 47 46 43 40 37 35 35 35 32 29 29 30 30 30 31 31 28 24 20 20 25 27 26 25 26 24 21 20 20 18 19 21 21 20 18 15 14 13 14 15 16 16 17 18 19 20 21 21 23 26 29 31 33 35 37 40 41 40 40 41 41 40 39 39 41 42 43 45 45 45 46 47
50 53 53 52 52 50 48 47 46 46 49 53 53 51 50 49 48 43 37 38 44 45 39 33 32 35 37 36 33 28 25 22 23 30 33 30 27 26 27 27 24 22 21 20 21 23 23 20 19 18 19 19 18 19 19 18 18 18 18 19 19 20 24 28 31 33 36 37 39 42 43 43 44 43 42 41 40 42 45 46 47 49 49 49 51 53
48 50 51 49 50 51 49 47 45 46 50 54 59 63 56 48 48 47 43 48 53 50 44 38 39 41 38 34 30 28 28 28 28 32 34 31 29 29 28 28 27 24 24 24 24 23 22 24 25 25 23 22 20 19 19 19 19 18 18 19 19 21 24 28 31 33 36 39 41 42 42 42 44 44 42 42 43 44 46 48 48 49 49 51 55 57
51 49 48 49 50 48 48 49 47 47 51 52 58 66 61 53 55 58 56 57 56 52 49 44 41 41 37 33 31 30 29 29 27 28 30 30 31 30 29 29 30 28 26 27 27 26 26 27 28 27 25 25 23 20 19 19 20 20 20 19 21 22 23 26 30 33 36 39 41 42 43 43 43 42 42 42 43 44 45 46 47 48 50 51 55 56
56 54 49 47 47 47 49 50 49 52 58 52 51 61 64 62 64 64 61 60 56 54 54 47 42 42 40 37 37 34 31 31 30 29 30 31 31 30 29 31 32 31 29 28 28 29 29 30 31 30 29 28 26 24 23 21 20 21 21 21 22 23 23 25 30 33 36 40 42 42 43 42 42 41 43 43 43 43 45 46 47 50 51 52 53 55
63 62 59 53 49 49 52 53 52 57 60 52 50 61 66 63 63 62 60 60 60 59 57 50 45 46 43 41 41 39 36 35 32 31 31 31 31 31 31 32 33 33 31 29 30 31 30 31 33 32 32 30 26 23 24 24 23 23 23 23 23 24 24 25 29 34 38 40 40 41 43 43 43 44 46 45 43 42 43 45 47 50 51 52 53 54
69 69 69 68 63 56 54 58 59 59 57 52 53 60 62 59 61 62 60 60 62 63 59 53 49 47 45 43 42 40 38 36 34 33 32 32 33 33 33 34 34 34 33 31 31 32 32 32 34 34 34 33 28 24 25 27 27 26 26 27 27 26 26 26 29 36 40 41 39 39 41 44 45 45 45 44 43 43 43 45 46 48 49 50 51 51
70 68 68 71 70 61 53 55 59 58 57 56 55 56 56 56 57 59 59 61 62 60 58 54 51 48 45 45 44 41 40 38 36 35 34 34 35 34 35 35 35 35 34 33 33 33 32 33 34 34 34 34 32 29 28 29 29 29 30 29 28 28 29 30 33 37 40 41 40 39 39 41 43 43 44 43 43 44 45 46 46 47 48 49 50 49
61 62 63 65 68 67 60 56 57 57 58 58 55 51 52 53 52 53 56 57 57 56 55 54 53 50 47 46 44 43 41 40 40 39 38 36 36 36 35 36 36 36 36 36 36 36 34 33 34 35 35 35 34 33 32 31 31 31 31 30 29 28 29 30 33 36 37 38 41 40 41 43 43 43 43 44 44 45 47 48 48 48 50 51 50 50
62 61 59 58 62 65 62 59 57 55 52 52 49 47 48 50 50 50 50 50 50 52 53 51 51 52 49 46 44 43 42 41 41 41 40 39 39 38 38 38 38 37 38 38 39 38 36 35 35 35 35 35 36 36 36 35 34 34 33 33 33 33 30 29 31 34 35 36 38 40 42 44 45 44 45 46 47 48 50 51 51 50 51 51 50 50
66 62 56 54 55 55 53 54 55 51 46 45 44 43 45 48 48 47 46 45 46 49 50 48 49 50 49 46 44 43 41 40 40 41 41 41 42 42 41 40 39 39 39 39 39 39 37 36 36 35 36 37 38 38 38 37 36 36 35 35 35 36 35 34 34 36 36 36 37 38 40 41 42 42 43 44 46 48 48 49 50 50 51 50 48 48
62 57 53 53 52 49 47 48 48 49 49 49 48 46 45 43 41 42 44 44 44 46 47 46 46 48 49 47 46 44 42 40 39 40 40 40 42 42 41 41 40 39 39 39 39 39 39 37 36 35 36 37 38 38 39 38 37 37 37 36 36 36 36 35 35 36 36 36 36 36 35 35 36 38 40 41 43 44 45 47 49 50 50 50 49 49
58 54 52 51 49 47 46 47 46 47 49 49 49 49 46 40 37 40 46 50 48 46 46 45 45 46 48 48 46 45 45 43 41 40 39 40 41 41 41 40 40 40 40 40 39 39 39 38 37 36 37 38 39 38 38 38 39 38 37 36 37 37 37 37 36 36 36 36 35 35 35 34 33 34 36 37 38 39 42 45 46 47 47 48 48 48